Regional Weather Roundup
Issued by NWS

Home | Current Version | Previous Version | Graphics & Text | Print | Product List | Glossary On
Versions: 1 2 3 4 5 6 7 8 9 10 11 12 13 14 15 16 17 18 19 20 21 22 23 24 25 26 27 28 29 30 31 32 33 34 35 36 37 38 39 40 41 42 43 44 45 46 47 48 49 50
000
ASUS45 KCYS 220210
RWRWY

WYOMING REGIONAL WEATHER ROUNDUP
NATIONAL WEATHER SERVICE CHEYENNE WY
700 PM MST FRI NOV 21 2014

NOTE:  "FAIR" INDICATES FEW OR NO CLOUDS BELOW 12,000 FEET
WITH NO SIGNIFICANT WEATHER AND/OR OBSTRUCTIONS TO VISIBILITY.

WYZ001-220300-
YELLOWSTONE NATIONAL PARK

CITY           SKY/WX    TMP DP  RH WIND       PRES   REMARKS
LK YELLOWSTONE   N/A     27  21  78 CALM      29.93F
W YELLOWSTONE  NOT AVBL

$$
WYZ002>013-054>058-071-098>099-220300-
NORTHERN WYOMING

CITY           SKY/WX    TMP DP  RH WIND       PRES   REMARKS
JACKSON        CLEAR     25  21  86 CALM      29.94F
CODY           PTCLDY    37  25  60 SE10      29.82S WCI  30
GREYBULL       CLEAR     21  19  92 CALM      29.86F
WORLAND        CLEAR     25  20  81 S6        29.84F WCI  18
SHERIDAN       CLEAR     33  24  69 S6        29.77F WCI  28
BUFFALO        CLEAR     37  19  48 S7        29.81F WCI  32
GILLETTE       CLEAR     31  25  78 S12       29.81F WCI  22
HULETT           N/A    N/A N/A N/A MISG        N/A
NEWCASTLE      FAIR      28  23  80 N6        29.86F WCI  22

$$
WYZ014>020-022>026-101>103-220300-
CENTRAL WYOMING

CITY           SKY/WX    TMP DP  RH WIND       PRES   REMARKS
BIG PINEY      CLEAR     24  17  74 CALM      29.99S
PINEDALE       CLEAR     23  19  86 NW3       29.99F
DUBOIS         FAIR      32  19  59 NW7       29.89S WCI  26
LANDER         NOT AVBL
RIVERTON       CLEAR     22  16  78 SW6       29.89F WCI  14
CASPER         CLEAR     33  23  66 SW12      29.89S WCI  24
DOUGLAS        CLEAR     36  23  59 N7        29.89S WCI  30

$$
WYZ021-027>030-104>119-220300-
SOUTHERN WYOMING

CITY           SKY/WX    TMP DP  RH WIND       PRES   REMARKS
EVANSTON       CLEAR     33  19  56 SW5       30.00S WCI  29
KEMMERER       CLEAR     32  23  69 W10       29.99F WCI  24
FORT BRIDGER   FAIR      33  22  64 S5        30.03S WCI  28
ROCK SPRINGS   CLEAR     33  18  53 SW8       29.99F WCI  26
DIXON          FAIR      27  19  72 CALM      30.05S
RAWLINS        CLEAR     32  18  56 SW8G18    29.98S WCI  25
SARATOGA       FAIR      32  19  59 SW8       30.00S WCI  25
LARAMIE        CLEAR     30  18  60 SW13      29.97S WCI  20
CHEYENNE       CLEAR     35  17  47 W9        29.95S WCI  28
TORRINGTON     CLEAR     34  20  56 CALM      29.88S
PINE BLUFFS    FAIR      30  18  59 S6        29.94S WCI  24

$$


USA.gov is the U.S. government's official web portal to all federal, state and local government web resources and services.